Location: Unspecified
(47.4992°N, 121.7766°W)
Time: 02:21:44
(UTC-08:00)

CZ-3 Stage 3 - Visible Passes

Search period start: 18 November 2017 00:00
Search period end: 28 November 2017 00:00
Orbit: 417 x 34781 km, 31.0° (Epoch: 17 November)

Date Brightness Start Highest point End Pass type
(mag) Time Alt. Az. Time Alt. Az. Time Alt. Az.
18 Nov 5.0 04:27:44 21° SSW 04:31:06 26° S 04:52:33 10° SE visible
21 Nov 5.1 04:18:55 21° SSW 04:21:50 25° S 04:42:12 10° SE visible
24 Nov 5.2 04:10:07 22° SSW 04:12:34 24° S 04:31:52 10° SE visible
27 Nov 5.3 04:01:17 22° S 04:03:17 23° S 04:21:31 10° SE visible
